TimeCST,TemperatureF,Dew PointF,Humidity,Sea Level PressureIn,VisibilityMPH,Wind Direction,Wind SpeedMPH,Gust SpeedMPH,PrecipitationIn,Events,Conditions,WindDirDegrees,DateUTC
12:52 AM,1.9,-4.0,76,30.40,10.0,SE,12.7,20.7,N/A,,Clear,130,2013-01-24 06:52:00
1:52 AM,1.9,-2.9,80,30.36,10.0,ESE,12.7,-,N/A,,Clear,120,2013-01-24 07:52:00
2:52 AM,1.9,-2.9,80,30.31,10.0,SE,11.5,18.4,N/A,,Clear,130,2013-01-24 08:52:00
3:52 AM,3.9,-2.0,76,30.29,10.0,SE,12.7,24.2,N/A,,Clear,130,2013-01-24 09:52:00
4:52 AM,3.9,-2.0,76,30.25,10.0,SE,11.5,23.0,N/A,,Partly Cloudy,140,2013-01-24 10:52:00
5:45 AM,3.2,-0.4,85,30.05,10.0,SE,13.8,19.6,N/A,,Mostly Cloudy,140,2013-01-24 11:45:00
5:52 AM,3.9,-2.0,76,30.20,10.0,SSE,15.0,21.9,N/A,,Overcast,150,2013-01-24 11:52:00
6:15 AM,3.2,-0.4,85,30.01,9.0,SE,16.1,-,N/A,,Overcast,140,2013-01-24 12:15:00
6:52 AM,3.9,-0.9,80,30.16,10.0,SE,13.8,-,N/A,,Overcast,140,2013-01-24 12:52:00
7:25 AM,5.0,-0.4,78,29.98,10.0,SSE,11.5,-,N/A,,Overcast,150,2013-01-24 13:25:00
7:52 AM,6.1,-0.0,76,30.13,10.0,SSE,17.3,26.5,N/A,,Overcast,160,2013-01-24 13:52:00
8:52 AM,7.0,1.0,77,30.10,10.0,SSE,16.1,24.2,0.00,,Overcast,150,2013-01-24 14:52:00
9:52 AM,8.1,3.0,80,30.10,10.0,SSE,11.5,-,0.00,,Overcast,160,2013-01-24 15:52:00
10:43 AM,10.4,3.2,73,29.93,5.0,SSE,11.5,20.7,0.00,Snow,Light Snow,160,2013-01-24 16:43:00
10:52 AM,10.0,5.0,80,30.08,1.8,SSE,10.4,-,0.00,Snow,Light Snow,160,2013-01-24 16:52:00
11:04 AM,10.4,6.8,85,29.94,2.5,South,9.2,-,0.00,Snow,Light Snow,170,2013-01-24 17:04:00
11:15 AM,10.4,6.8,85,29.89,1.0,SE,16.1,-,0.00,Snow,Light Snow,140,2013-01-24 17:15:00
11:20 AM,10.4,6.8,85,29.91,0.5,South,10.4,-,0.01,Fog-Snow,Snow,180,2013-01-24 17:20:00
11:33 AM,10.4,8.6,92,29.90,1.8,South,15.0,20.7,0.01,Snow,Light Snow,180,2013-01-24 17:33:00
11:36 AM,10.4,8.6,92,29.90,3.0,South,10.4,20.7,0.01,Snow,Light Snow,170,2013-01-24 17:36:00
11:52 AM,12.0,8.1,84,30.05,8.0,South,11.5,-,0.02,Snow,Light Snow,170,2013-01-24 17:52:00
12:52 PM,15.1,9.0,77,29.99,10.0,South,12.7,18.4,0.00,,Clear,180,2013-01-24 18:52:00
1:52 PM,19.0,12.0,74,29.95,10.0,South,9.2,-,N/A,,Clear,190,2013-01-24 19:52:00
2:52 PM,21.9,15.1,75,29.95,10.0,SW,8.1,-,N/A,,Clear,220,2013-01-24 20:52:00
3:33 PM,24.8,17.6,74,29.84,10.0,SW,9.2,-,N/A,,Mostly Cloudy,220,2013-01-24 21:33:00
3:52 PM,25.0,18.0,75,29.96,10.0,SW,8.1,-,N/A,,Overcast,220,2013-01-24 21:52:00
4:52 PM,25.0,19.0,78,29.99,10.0,WSW,9.2,-,N/A,,Overcast,240,2013-01-24 22:52:00
5:52 PM,24.1,19.9,84,30.02,10.0,West,9.2,-,N/A,,Overcast,270,2013-01-24 23:52:00
6:52 PM,24.1,18.0,77,30.05,10.0,WNW,10.4,-,N/A,,Overcast,300,2013-01-25 00:52:00
7:52 PM,23.0,19.0,85,30.08,10.0,NW,15.0,-,N/A,,Overcast,320,2013-01-25 01:52:00
8:52 PM,21.0,17.1,85,30.10,10.0,NNW,11.5,-,N/A,,Overcast,330,2013-01-25 02:52:00
9:52 PM,21.0,17.1,85,30.10,10.0,North,10.4,-,N/A,,Overcast,350,2013-01-25 03:52:00
10:52 PM,19.9,15.1,81,30.12,10.0,NNW,8.1,-,N/A,,Overcast,330,2013-01-25 04:52:00
11:52 PM,19.0,15.1,85,30.13,10.0,North,8.1,-,N/A,,Overcast,350,2013-01-25 05:52:00